Location: Arrien
(43.3167°N, 0.1500°W)
Time: 11:33:25
(UTC+00:00)

Cosmos 1544 Rocket - Pass Details

Date: 03 June 2022
Orbit: 603 x 631 km, 82.5° (Epoch: 03 July)

Event Time Altitude Azimuth Distance (km) Brightness Sun altitude
Rises 01:41:25 0° 339° (NNW) 2,898 7.7 -20.3°
Reaches altitude 10° 01:43:56 10° 327° (NNW) 1,982 6.5 -20.1°
Maximum altitude 01:47:31 25° 272° (W) 1,236 4.8 -19.8°
Enters shadow 01:47:40 25° 268° (W) 1,237 4.8 -19.8°
